Regional Weather Roundup
Issued by NWS Sterling, VA

Home | Current Version | Previous Version | Graphics & Text | Print | Product List | Glossary On
Versions: 1 2 3 4 5 6 7 8 9 10 11 12 13 14 15 16 17 18 19 20 21 22 23 24 25 26 27 28
000
ASUS41 KLWX 161711
RWRLWX

REGIONAL WEATHER ROUNDUP
NATIONAL WEATHER SERVICE BALTIMORE MD/WASHINGTON DC
1200 PM EST THU NOV 16 2017

Note: "FAIR" indicates few or no clouds below 12,000 feet
with no significant weather and/or obstructions to visibility.
 TC=TEMPERATURE CELSIUS

 * =Non NWS site. Station does not report precipitation (e.g. rain,
    snow, etc.), thunder, or fog.

DCZ001-MDZ009-015-VAZ040>042-051-053>054-161800-
WASHINGTON METRO

CITY           SKY/WX    TMP DP  RH WIND       PRES   REMARKS
WASHINGTON NAT PTSUNNY   56  44  64 S13       29.89F
DULLES         PTSUNNY   59  37  44 W16G25    29.89F
ANDREWS AFB    CLOUDY    58  41  52 SW9       29.89F
FT BELVOIR     MOSUNNY   58  42  55 CALM      29.89F
QUANTICO       PTSUNNY   56  49  77 S12       29.91F
COLLEGE PARK*  CLOUDY    58  39  50 SW5       29.89F
LEESBURG*      MOSUNNY   57  41  54 W16       29.90F
MANASSAS*      PTSUNNY   60  38  43 W9G24     29.90F
GAITHERSBURG*  PTSUNNY   57  38  48 W12G21    29.89F

$$

MDZ006>007-011-014-161800-
BALTIMORE METRO

CITY           SKY/WX    TMP DP  RH WIND       PRES   REMARKS
BWI AIRPORT    MOSUNNY   60  37  42 W20G25    29.87F
MD SCIENCE CTR   N/A     60  34  37 MISG      29.89F
MARTIN STATE   PTSUNNY   61  37  41 W21G36    29.89F
ANNAPOLIS      MOSUNNY   61  37  41 W17G31    29.88F
FORT MEADE*    PTSUNNY   59  36  41 W12G20    29.90F

$$

MDZ012-015-019>023-161800-
MARYLAND EASTERN SHORE

CITY           SKY/WX    TMP DP  RH WIND       PRES   REMARKS
OCEAN CITY     SUNNY     59  46  62 NW9       29.89F
SALISBURY      MOSUNNY   59  44  57 W8        29.89F
CAMBRIDGE*       N/A     55  43  62 SW6       29.90F
EASTON*        MOSUNNY   59  41  51 W8        29.93F

$$

MDZ017>025-161800-
SOUTHERN MARYLAND

CITY           SKY/WX    TMP DP  RH WIND       PRES   REMARKS
PATUXENT RIVER CLOUDY    58  42  55 W10       29.90F
ST INIGOES     PTSUNNY   58  45  62 W7        29.90F
LEONARDTOWN*   CLOUDY    55  41  58 SW8       29.93F

$$

MDZ003>005-161800-
NORTH CENTRAL MARYLAND

CITY           SKY/WX    TMP DP  RH WIND       PRES   REMARKS
FREDERICK*     PTSUNNY   61  36  39 W14G29    29.91F
HAGERSTOWN APT CLOUDY    57  32  38 W23G32    29.87F
WESTMINSTER*   MOSUNNY   55  39  54 W17G24    29.85F

$$

MDZ501>502-161800-
WESTERN MARYLAND

CITY           SKY/WX    TMP DP  RH WIND       PRES   REMARKS
OAKLAND*       PTSUNNY   36  32  87 W14G24    29.90S WCI  27
CUMBERLAND*    MOSUNNY   54  32  43 W17G30    29.97S

$$

VAZ025>031-161800-
SHENANDOAH VALLEY

CITY           SKY/WX    TMP DP  RH WIND       PRES   REMARKS
WINCHESTER*    MOSUNNY   55  34  44 NW24G31   29.89F
FRONT ROYAL*   MOSUNNY   59  34  38 W5G17     29.89F
LURAY*         SUNNY     59  34  38 W12G18    29.91F
NEW MARKET*    SUNNY     58  30  34 W13G25    29.91F
STAUNTON*      SUNNY     58  30  35 W10G17    29.93F
WAYNESBORO*    SUNNY     57  32  38 W9G16     29.93F

$$

WVZ021-048>050-054>055-161800-
EASTERN WEST VIRGINIA PANHANDLE

CITY           SKY/WX    TMP DP  RH WIND       PRES   REMARKS
MARTINSBURG    LGT RAIN  59  33  37 W20G29    29.87F
PETERSBURG*    MOSUNNY   53  33  46 W18G26    29.93F

$$

VAZ036>039-050-161800-
CENTRAL FOOTHILLS

CITY           SKY/WX    TMP DP  RH WIND       PRES   REMARKS
CHARLOTTESVILL SUNNY     61  33  35 W8        29.91F
CULPEPER*      SUNNY     61  37  40 SW12G18   29.91F
ORANGE*        SUNNY     59  37  44 SW8       29.91F
GORDONSVILLE*  MOSUNNY   60  39  45 SW10G20   29.91F
WARRENTON*     NOT AVBL

$$

VAZ055>057-161800-
NORTH AND CENTRAL PIEDMONT

CITY           SKY/WX    TMP DP  RH WIND       PRES   REMARKS
FREDERICKSBRG* PTSUNNY   54  42  65 SW7       29.91F
STAFFORD*      MOSUNNY   59  43  55 S8        29.95F

$$

NCZ024-NYZ072-PAZ021-071-VAZ022-071-161800-
OTHER REGIONAL OBSERVATIONS

CITY           SKY/WX    TMP DP  RH WIND       PRES   REMARKS
NEW YORK CITY  MOSUNNY   54  46  74 VRB7      29.80F
PHILADELPHIA   MOSUNNY   59  36  42 W18G30    29.84F
PITTSBURGH     CLOUDY    39  31  72 W18G28    30.01R
ROANOKE        SUNNY     60  29  30 NW22G28   30.00F
RICHMOND       MOSUNNY   63  37  38 NW14G22   29.93F
RALEIGH        MOSUNNY   63  38  39 NW9G18    30.01F

$$

ANZ530>537-161800-
MARINE OBSERVATIONS

STATION/POSITION TIME  TEMP    WIND        PRES
                       AIR SEA DIR/SP/G
                 (UTC) (F)     (DEG/KT/KT) (MB)
THOMAS PT LIGHT  1700   58 53  270/ 14/ 16   N/A
BALT KEY BRIDGE  1648   58     260/ 12/ 14 1011.4F
COVE POINT       1648   57     280/  8/ 11 1013.2F
LEWISETTA        1648   58 52  320/  9/ 11 1012.7F
SOLOMONS ISLAND  1642   57 55  250/  8/  9 1012.4F
PINEY POINT      1648          360/  9/ 10   N/A

$$





USA.gov is the U.S. government's official web portal to all federal, state and local government web resources and services.